Vertical_Velocity
1 -2 -3 -3 -1 -2 -9 -12 -5 -17 -1 0 6 -3 16 1 3 7 3 3 9 4 2 4 -1 -1 3 6 2 -1 1 -0 -0 1 1 3 1 1 5 4 1 -3 -3
2 4 -1 -0 -0 3 1 9 -24 -5 -3 -17 -6 1 -4 4 7 8 6 3 12 8 3 5 5 0 3 3 2 1 1 0 5 3 3 2 3 1 1 1 2 4 0
1 3 3 -2 -2 -2 -3 3 -0 -8 -10 -3 11 2 -3 -6 12 1 10 1 35 17 4 -1 -0 4 6 5 3 1 0 1 -4 -2 -2 -1 -2 -0 -1 -1 -1 -1 0
6 -1 2 -0 1 -5 -2 -0 2 0 7 12 -1 1 -5 4 3 7 4 3 42 2 2 5 3 7 6 6 4 2 1 -4 -1 0 -2 -1 -1 -4 -2 -1 0 0 2
4 -4 -0 2 1 4 1 1 4 3 1 2 7 -2 -6 8 -1 11 12 7 1 1 33 26 3 10 5 4 -2 -1 -1 -2 1 1 1 -3 -3 -3 -3 -2 -5 -4 -0
-2 -1 1 2 3 0 2 -1 5 6 6 5 -3 -3 0 -2 1 -4 3 5 -0 -2 3 -1 0 -1 -1 4 0 2 -2 -0 -2 -1 2 3 2 0 1 -1 1 1 1
7 -4 1 6 -0 1 1 4 1 -1 4 6 -2 5 3 6 1 1 4 14 9 8 -1 1 0 2 -11 -8 1 1 2 2 -1 -3 -4 -3 -2 1 3 -0 -1 -0 -0
10 4 6 13 8 -2 -0 3 0 -5 9 5 -4 0 3 11 11 6 10 2 11 1 5 5 3 3 -7 -5 -6 -3 -1 -2 0 -2 -3 -3 -1 -0 1 -2 -1 -2 -3
11 9 9 2 7 22 4 -3 -1 -4 -7 -3 6 -9 -7 -1 -3 6 11 10 14 6 3 -9 7 -1 4 -7 -7 1 -6 -4 -3 -0 -1 -3 -3 -2 2 3 1 -0 1
12 16 -11 -7 21 5 11 28 7 17 5 -8 2 -0 2 -10 -16 -3 6 8 1 9 3 17 -0 7 6 -15 2 2 1 0 -0 -5 -1 0 -5 -3 -3 1 -3 3 -1
11 -5 3 7 23 4 -5 30 7 5 12 27 8 -7 0 -1 -0 -8 -5 -5 11 4 5 -2 22 1 -9 -1 -2 1 2 0 5 3 -4 -4 -4 2 -5 5 -3 -8 -2
-0 6 -13 7 9 -4 -6 -14 26 8 11 10 2 16 12 -1 -8 -16 -10 5 -2 1 6 -4 -0 7 4 -5 -7 -0 3 -2 7 3 2 -0 3 5 -1 -1 -1 -4 0
-1 13 2 11 -10 11 9 -14 -5 7 3 0 16 13 2 4 0 18 10 4 -7 1 0 -6 10 10 3 0 -2 1 -1 0 8 2 -2 1 -6 -3 5 -0 -0 3 -0
-3 -3 -3 6 -4 -8 21 9 11 0 2 -10 4 -5 2 14 1 4 10 3 -4 2 -3 -10 -3 0 -0 -5 5 0 1 7 -8 5 6 -3 -1 -2 -6 -11 -4 5 -3
5 5 0 9 4 6 5 0 -7 -9 4 10 7 -15 8 6 1 20 -11 1 30 -12 -4 -9 -3 5 -0 0 2 0 2 6 6 -5 -2 0 3 5 2 -2 -1 -5 2
-2 -3 1 5 -6 -3 0 -2 3 10 -3 -6 -1 9 11 -3 6 19 -14 12 0 7 9 1 9 0 2 4 8 7 1 2 2 0 -9 -5 6 -5 -3 4 1 -1 2
1 2 1 -1 3 -2 4 1 -3 -2 -1 2 1 -8 -2 0 -4 -0 3 2 -4 2 3 6 4 7 10 6 6 2 1 6 6 -2 -5 -2 3 6 -2 2 2 -0 -2
-1 -1 -1 0 0 -1 3 0 -1 2 -1 -2 5 -6 8 8 6 -4 -1 -9 -0 -1 5 4 -0 -1 2 2 8 9 6 1 3 2 -0 2 -0 3 2 2 -2 1 -4
-1 -1 -1 1 -0 1 -0 -0 3 -1 -3 3 6 -7 0 -3 -2 1 2 0 -6 1 -14 12 -12 4 11 -8 10 4 4 8 3 2 0 3 1 4 2 -1 -5 3 -6
-1 -1 -2 -2 -2 -1 -2 -3 -2 -2 2 2 -1 3 2 2 -1 1 8 2 7 3 -3 -2 -7 0 7 3 3 4 -0 2 4 0 5 3 2 2 -0 -1 4 2 5
0 0 1 2 1 -3 5 -3 -1 0 -2 -2 -3 -3 -2 2 2 2 5 4 -1 2 9 6 3 -8 2 -0 -11 -8 -3 7 -1 5 2 0 -1 1 -0 -0 3 -2 -1
-2 -1 -1 1 0 -1 2 0 -2 1 -1 0 1 -2 -1 -4 -5 -3 -3 1 0 1 4 3 3 4 4 1 -0 -8 1 3 -3 -3 -5 1 3 2 -0 4 6 -6 3
-0 -0 0 1 -1 -0 1 3 -2 -1 -2 0 0 2 0 -3 -1 1 1 -2 -4 -4 -2 -4 -0 1 -1 4 14 12 -4 1 0 1 2 2 2 3 7 0 0 -3 -6
-2 -1 -0 -1 -1 1 -1 -1 -5 -0 1 1 -2 -1 2 5 4 -2 -5 4 5 3 0 5 -0 2 -0 2 2 10 11 11 8 6 2 0 2 -2 7 5 -1 -2 0
-2 -3 -3 -2 -1 0 1 0 -3 -1 -2 -1 -0 -2 -2 -3 -4 1 3 -4 -4 6 3 5 2 -4 1 0 3 4 -2 2 1 -3 2 3 3 4 -4 -1 -1 1 -1
-1 -1 -1 -2 -3 -3 -2 -0 -2 -2 -0 -0 -3 -2 -0 -2 0 -2 0 -0 -0 0 -3 1 3 2 1 -1 0 6 9 5 4 5 -1 -2 -2 5 -1 -2 0 -1 -3
Height
1474 1475 1478 1480 1484 1484 1485 1484 1489 1496 1504 1511 1515 1518 1521 1525 1529 1533 1535 1539 1542 1543 1546 1548 1551 1556 1559 1561 1564 1566 1569 1572 1575 1578 1579 1581 1584 1586 1588 1588 1589 1590 1593
1473 1473 1475 1480 1483 1484 1486 1488 1492 1495 1505 1511 1516 1518 1520 1525 1528 1531 1533 1536 1540 1542 1544 1548 1551 1554 1557 1561 1563 1567 1570 1573 1577 1579 1582 1584 1586 1588 1590 1592 1593 1593 1594
1471 1472 1474 1477 1481 1484 1487 1489 1493 1497 1504 1512 1512 1516 1520 1524 1525 1527 1531 1534 1535 1536 1541 1545 1550 1553 1556 1559 1563 1567 1571 1574 1578 1581 1583 1586 1589 1590 1592 1594 1596 1597 1597
1468 1470 1472 1476 1479 1483 1487 1491 1494 1498 1500 1504 1511 1516 1519 1521 1524 1525 1528 1530 1526 1535 1538 1543 1547 1550 1554 1559 1563 1567 1570 1575 1579 1581 1584 1587 1589 1591 1593 1595 1596 1598 1598
1464 1469 1471 1475 1478 1481 1485 1487 1490 1495 1498 1503 1508 1513 1518 1518 1522 1523 1525 1527 1528 1534 1537 1539 1546 1549 1554 1559 1563 1567 1570 1574 1578 1581 1583 1585 1587 1589 1591 1593 1595 1597 1598
1459 1463 1468 1472 1475 1478 1481 1485 1488 1492 1497 1498 1504 1512 1517 1519 1521 1525 1527 1530 1534 1537 1540 1542 1543 1550 1555 1559 1564 1567 1569 1573 1576 1580 1582 1583 1585 1587 1588 1590 1593 1594 1596
1454 1459 1463 1467 1472 1475 1479 1483 1488 1492 1496 1499 1502 1509 1514 1517 1519 1522 1526 1528 1530 1533 1537 1541 1543 1548 1553 1559 1563 1566 1569 1572 1573 1577 1580 1582 1585 1586 1586 1587 1590 1592 1593
1451 1451 1455 1462 1467 1470 1475 1479 1483 1487 1492 1496 1499 1504 1509 1515 1517 1520 1522 1526 1529 1533 1535 1536 1541 1545 1550 1555 1561 1565 1567 1570 1572 1574 1576 1579 1582 1585 1585 1585 1587 1590 1590
1448 1450 1452 1455 1457 1464 1469 1475 1481 1484 1487 1492 1496 1499 1504 1507 1514 1516 1520 1521 1524 1528 1533 1535 1538 1543 1548 1553 1560 1562 1565 1568 1570 1572 1574 1576 1580 1584 1584 1584 1586 1589 1589
1444 1447 1452 1454 1452 1455 1462 1468 1476 1480 1483 1485 1490 1495 1497 1501 1504 1514 1518 1520 1524 1528 1531 1534 1536 1540 1547 1551 1557 1560 1563 1565 1567 1570 1573 1575 1578 1581 1584 1585 1587 1589 1589
1435 1446 1448 1453 1454 1455 1460 1464 1464 1472 1475 1482 1484 1488 1493 1498 1502 1505 1511 1516 1521 1525 1529 1532 1531 1538 1543 1549 1554 1559 1561 1565 1566 1566 1570 1574 1578 1580 1580 1583 1584 1587 1588
1439 1443 1444 1449 1449 1453 1461 1467 1461 1470 1470 1473 1475 1479 1485 1490 1494 1498 1507 1512 1515 1521 1525 1530 1531 1534 1538 1545 1552 1557 1559 1562 1566 1565 1570 1572 1576 1576 1578 1580 1582 1584 1586
1440 1441 1447 1442 1446 1457 1456 1460 1468 1467 1465 1467 1472 1476 1481 1484 1489 1495 1498 1503 1509 1517 1520 1527 1527 1532 1535 1541 1547 1552 1556 1559 1562 1563 1566 1569 1572 1574 1576 1579 1582 1583 1584
1441 1437 1442 1444 1448 1459 1454 1454 1458 1464 1466 1470 1473 1475 1479 1484 1487 1492 1493 1497 1505 1510 1514 1519 1524 1529 1533 1538 1543 1548 1554 1555 1558 1562 1564 1564 1567 1570 1573 1576 1580 1581 1583
1440 1440 1446 1441 1446 1454 1449 1452 1455 1464 1470 1466 1469 1476 1476 1481 1487 1489 1492 1493 1497 1501 1505 1512 1518 1523 1526 1532 1536 1540 1548 1550 1552 1556 1560 1562 1565 1568 1572 1574 1578 1578 1581
1441 1443 1443 1440 1446 1449 1451 1454 1456 1461 1458 1467 1472 1473 1474 1479 1485 1482 1491 1491 1496 1497 1501 1503 1510 1514 1519 1525 1529 1534 1540 1546 1548 1549 1556 1562 1564 1564 1568 1570 1574 1575 1577
1443 1445 1445 1446 1449 1449 1452 1452 1453 1460 1461 1465 1464 1469 1473 1476 1479 1482 1489 1487 1489 1496 1498 1500 1504 1507 1513 1517 1522 1529 1534 1539 1543 1545 1551 1556 1558 1560 1563 1567 1569 1572 1575
1446 1447 1448 1449 1450 1451 1452 1454 1458 1460 1462 1465 1466 1467 1473 1471 1473 1476 1480 1484 1489 1490 1494 1495 1501 1506 1507 1512 1520 1523 1528 1532 1538 1541 1547 1551 1554 1557 1558 1562 1566 1568 1570
1448 1449 1451 1452 1453 1454 1454 1455 1458 1460 1463 1466 1465 1466 1470 1469 1474 1479 1479 1481 1484 1485 1489 1488 1499 1505 1503 1507 1517 1519 1526 1529 1533 1537 1542 1546 1549 1551 1554 1557 1561 1564 1565
1451 1452 1454 1455 1456 1457 1457 1459 1461 1462 1463 1463 1463 1467 1471 1473 1475 1477 1477 1477 1481 1484 1487 1486 1494 1499 1499 1503 1509 1517 1521 1527 1530 1532 1536 1540 1543 1546 1548 1554 1557 1558 1561
1454 1455 1457 1458 1458 1458 1461 1461 1463 1463 1463 1464 1465 1467 1469 1471 1471 1475 1476 1477 1479 1484 1487 1486 1488 1493 1497 1497 1502 1512 1519 1525 1527 1529 1532 1535 1539 1541 1544 1549 1551 1554 1557
1456 1457 1458 1458 1459 1460 1462 1462 1463 1464 1465 1468 1468 1469 1468 1471 1472 1474 1475 1477 1481 1483 1486 1487 1487 1491 1493 1496 1499 1505 1513 1517 1521 1522 1529 1532 1533 1535 1540 1544 1544 1548 1553
1457 1457 1459 1459 1460 1461 1462 1464 1464 1465 1466 1467 1469 1470 1471 1473 1474 1476 1479 1479 1480 1481 1483 1486 1489 1491 1491 1494 1497 1498 1505 1511 1514 1517 1523 1526 1528 1531 1534 1536 1539 1541 1547
1457 1458 1458 1458 1460 1461 1461 1462 1463 1464 1465 1466 1467 1469 1471 1472 1473 1476 1479 1482 1483 1483 1483 1485 1486 1489 1491 1493 1495 1498 1502 1506 1511 1514 1518 1521 1523 1526 1530 1529 1533 1536 1539
1457 1458 1458 1459 1460 1460 1460 1461 1462 1463 1464 1465 1466 1468 1470 1471 1472 1475 1476 1479 1481 1482 1483 1486 1485 1486 1489 1490 1493 1496 1498 1503 1506 1510 1512 1513 1516 1520 1521 1522 1527 1529 1531
1457 1457 1457 1458 1459 1459 1459 1460 1460 1462 1464 1464 1466 1468 1469 1470 1472 1474 1475 1476 1476 1481 1482 1483 1483 1485 1488 1489 1491 1492 1494 1497 1501 1504 1506 1510 1514 1516 1515 1514 1516 1521 1524